TimeMDT,TemperatureF,Dew PointF,Humidity,Sea Level PressureIn,VisibilityMPH,Wind Direction,Wind SpeedMPH,Gust SpeedMPH,PrecipitationIn,Events,Conditions,WindDirDegrees,DateUTC
12:53 AM,46.0,21.9,39,29.63,10.0,SE,8.1,-,N/A,,Clear,140,2012-03-17 06:53:00
1:53 AM,43.0,21.9,43,29.63,10.0,Calm,Calm,-,N/A,,Clear,0,2012-03-17 07:53:00
2:53 AM,43.0,21.9,43,29.63,10.0,West,3.5,-,N/A,,Clear,260,2012-03-17 08:53:00
3:53 AM,42.8,21.2,42,29.67,10.0,WNW,3.5,-,N/A,,Clear,300,2012-03-17 09:53:00
4:53 AM,39.0,23.0,53,29.62,10.0,WNW,3.5,-,N/A,,Clear,300,2012-03-17 10:53:00
5:53 AM,34.0,23.0,64,29.65,10.0,Calm,Calm,-,N/A,,Clear,0,2012-03-17 11:53:00
6:53 AM,33.1,23.0,66,29.69,10.0,NNW,5.8,-,N/A,,Clear,340,2012-03-17 12:53:00
7:53 AM,41.0,25.0,53,29.69,10.0,NW,3.5,-,N/A,,Clear,310,2012-03-17 13:53:00
8:53 AM,50.0,27.0,41,29.65,10.0,NW,3.5,-,N/A,,Clear,320,2012-03-17 14:53:00
9:53 AM,59.0,28.9,32,29.66,10.0,Calm,Calm,-,N/A,,Clear,0,2012-03-17 15:53:00
10:53 AM,68.0,28.9,23,29.64,10.0,Calm,Calm,-,N/A,,Clear,0,2012-03-17 16:53:00
11:53 AM,72.0,28.9,20,29.61,10.0,ESE,5.8,-,N/A,,Clear,120,2012-03-17 17:53:00
12:53 PM,75.9,28.9,18,29.59,10.0,South,9.2,-,N/A,,Clear,170,2012-03-17 18:53:00
1:53 PM,81.0,23.0,12,29.55,10.0,South,15.0,19.6,N/A,,Clear,190,2012-03-17 19:53:00
2:53 PM,84.0,18.0,9,29.52,10.0,SSW,15.0,28.8,N/A,,Clear,200,2012-03-17 20:53:00
3:53 PM,82.9,15.1,8,29.51,10.0,SSW,17.3,23.0,N/A,,Clear,210,2012-03-17 21:53:00
4:53 PM,82.9,10.0,6,29.50,10.0,South,20.7,27.6,N/A,,Clear,190,2012-03-17 22:53:00
5:53 PM,80.1,10.0,7,29.52,10.0,South,16.1,-,N/A,,Clear,180,2012-03-17 23:53:00
6:53 PM,68.0,12.0,11,29.54,10.0,SSE,8.1,-,N/A,,Clear,160,2012-03-18 00:53:00
7:53 PM,59.0,12.9,16,29.54,10.0,SE,8.1,-,N/A,,Clear,130,2012-03-18 01:53:00
8:53 PM,57.9,19.0,22,29.53,10.0,South,13.8,-,N/A,,Clear,170,2012-03-18 02:53:00
9:53 PM,57.0,15.1,19,29.53,10.0,South,10.4,-,N/A,,Clear,190,2012-03-18 03:53:00
10:53 PM,55.0,15.1,21,29.51,10.0,South,11.5,-,N/A,,Clear,180,2012-03-18 04:53:00
11:53 PM,57.9,27.0,31,29.49,10.0,SSE,19.6,-,N/A,,Clear,160,2012-03-18 05:53:00